| time (UTC) | temp C | wind direction | speed KPH | gust KPH | rain 1hr cm | rain 24hr cm | rain mn cm | humidity % | barometer mb |
| 20260505032003 | 13 | 25 | 6.4 | 17.7 | 0.00 | 0.00 | 0.00 | 46 | 1007.9 |
| 20260505031508 | 13 | 27 | 8.0 | 17.7 | 0.00 | 0.00 | 0.00 | 46 | 1008.1 |
| 20260505031003 | 13 | 17 | 8.0 | 22.5 | 0.00 | 0.00 | 0.00 | 46 | 1008.1 |
| 20260505030503 | 13 | 11 | 8.0 | 22.5 | 0.00 | 0.00 | 0.00 | 46 | 1008.1 |
| 20260505030008 | 13 | 20 | 6.4 | 19.3 | 0.00 | 0.00 | 0.00 | 47 | 1007.8 |
| 20260505025503 | 13 | 13 | 6.4 | 17.7 | 0.00 | 0.00 | 0.00 | 48 | 1007.6 |
| 20260505025004 | 13 | 11 | 6.4 | 29.0 | 0.00 | 0.00 | 0.00 | 47 | 1007.7 |
| 20260505024508 | 13 | 16 | 6.4 | 29.0 | 0.00 | 0.00 | 0.00 | 47 | 1007.5 |
| 20260505024004 | 13 | 13 | 8.0 | 27.4 | 0.00 | 0.00 | 0.00 | 47 | 1007.7 |
| 20260505023504 | 13 | 20 | 9.7 | 22.5 | 0.00 | 0.00 | 0.00 | 46 | 1007.2 |
| 20260505023008 | 13 | 22 | 9.7 | 22.5 | 0.00 | 0.00 | 0.00 | 46 | 1006.9 |
| 20260505022504 | 14 | 23 | 8.0 | 22.5 | 0.00 | 0.00 | 0.00 | 46 | 1006.9 |
| 20260505022003 | 14 | 22 | 8.0 | 20.9 | 0.00 | 0.00 | 0.00 | 46 | 1006.9 |
| 20260505021508 | 14 | 9 | 8.0 | 27.4 | 0.00 | 0.00 | 0.00 | 46 | 1006.9 |
| 20260505021003 | 14 | 17 | 9.7 | 27.4 | 0.00 | 0.00 | 0.00 | 46 | 1006.8 |
| 20260505020503 | 14 | 22 | 9.7 | 30.6 | 0.00 | 0.00 | 0.00 | 47 | 1006.6 |
| 20260505020008 | 14 | 15 | 8.0 | 30.6 | 0.00 | 0.00 | 0.00 | 47 | 1006.8 |
| 20260505015503 | 15 | 18 | 9.7 | 33.8 | 0.00 | 0.00 | 0.00 | 47 | 1006.7 |
| 20260505015004 | 15 | 17 | 11.3 | 33.8 | 0.00 | 0.00 | 0.00 | 47 | 1006.8 |
| 20260505013503 | 15 | 29 | 8.0 | 29.0 | 0.00 | 0.00 | 0.00 | 44 | 1006.1 |
| 20260505013008 | 16 | 22 | 8.0 | 29.0 | 0.00 | 0.00 | 0.00 | 44 | 1006.0 |
| 20260505012504 | 16 | 23 | 9.7 | 25.7 | 0.00 | 0.00 | 0.00 | 43 | 1005.8 |
| 20260505012004 | 16 | 17 | 9.7 | 32.2 | 0.00 | 0.00 | 0.00 | 43 | 1005.9 |
| 20260505011508 | 16 | 13 | 9.7 | 32.2 | 0.00 | 0.00 | 0.00 | 42 | 1005.7 |
| 20260505011003 | 16 | 26 | 8.0 | 27.4 | 0.00 | 0.00 | 0.00 | 42 | 1005.8 |
| 20260505010504 | 16 | 26 | 9.7 | 29.0 | 0.00 | 0.00 | 0.00 | 41 | 1005.7 |
| 20260505010009 | 17 | 16 | 9.7 | 29.0 | 0.00 | 0.00 | 0.00 | 41 | 1005.7 |
| 20260505005503 | 17 | 11 | 11.3 | 29.0 | 0.00 | 0.00 | 0.00 | 40 | 1005.6 |
| 20260505005004 | 17 | 14 | 11.3 | 27.4 | 0.00 | 0.00 | 0.00 | 39 | 1005.4 |
| 20260505004004 | 18 | 13 | 6.4 | 24.1 | 0.00 | 0.00 | 0.00 | 38 | 1005.4 |
| 20260505003503 | 18 | 14 | 6.4 | 24.1 | 0.00 | 0.00 | 0.00 | 38 | 1005.2 |
| 20260505003008 | 18 | 16 | 9.7 | 29.0 | 0.00 | 0.00 | 0.00 | 38 | 1005.2 |
| 20260505002505 | 19 | 16 | 12.9 | 30.6 | 0.00 | 0.00 | 0.00 | 37 | 1005.0 |
| 20260505002004 | 20 | 18 | 11.3 | 30.6 | 0.00 | 0.00 | 0.00 | 37 | 1004.9 |
| 20260505001508 | 20 | 14 | 11.3 | 32.2 | 0.00 | 0.00 | 0.00 | 37 | 1004.7 |
| 20260505001004 | 20 | 9 | 11.3 | 32.2 | 0.00 | 0.00 | 0.00 | 36 | 1004.8 |
| 20260505000503 | 20 | 9 | 9.7 | 22.5 | 0.00 | 0.00 | 0.00 | 36 | 1004.7 |
| 20260505000008 | 20 | 8 | 8.0 | 22.5 | 0.00 | 0.00 | 0.00 | 36 | 1004.5 |
| 20260504235505 | 20 | 7 | 8.0 | 17.7 | 0.00 | 0.00 | 0.00 | 37 | 1004.4 |
| 20260504235003 | 21 | 15 | 8.0 | 19.3 | 0.00 | 0.00 | 0.00 | 37 | 1004.4 |
| 20260504234509 | 21 | 24 | 8.0 | 20.9 | 0.00 | 0.00 | 0.00 | 36 | 1004.5 |
| 20260504234003 | 21 | 23 | 8.0 | 25.7 | 0.00 | 0.00 | 0.00 | 36 | 1004.4 |
| 20260504233505 | 21 | 17 | 8.0 | 25.7 | 0.00 | 0.00 | 0.00 | 35 | 1004.4 |
| 20260504233008 | 21 | 11 | 9.7 | 27.4 | 0.00 | 0.00 | 0.00 | 35 | 1004.4 |
| 20260504232503 | 21 | 15 | 11.3 | 27.4 | 0.00 | 0.00 | 0.00 | 35 | 1004.2 |
| 20260504232004 | 21 | 22 | 8.0 | 22.5 | 0.00 | 0.00 | 0.00 | 34 | 1004.1 |
| 20260504231507 | 22 | 22 | 6.4 | 20.9 | 0.00 | 0.00 | 0.00 | 34 | 1004.0 |
| 20260504231004 | 22 | 11 | 6.4 | 19.3 | 0.00 | 0.00 | 0.00 | 34 | 1004.0 |
| 20260504230503 | 22 | 5 | 6.4 | 19.3 | 0.00 | 0.00 | 0.00 | 34 | 1004.0 |
| 20260504230008 | 22 | 20 | 8.0 | 19.3 | 0.00 | 0.00 | 0.00 | 33 | 1003.8 |
| 20260504225504 | 22 | 14 | 8.0 | 20.9 | 0.00 | 0.00 | 0.00 | 34 | 1003.5 |
| 20260504225004 | 22 | 2 | 8.0 | 25.7 | 0.00 | 0.00 | 0.00 | 34 | 1003.4 |
| 20260504224004 | 23 | 13 | 8.0 | 22.5 | 0.00 | 0.00 | 0.00 | 34 | 1003.3 |
| 20260504223504 | 23 | 11 | 8.0 | 22.5 | 0.00 | 0.00 | 0.00 | 33 | 1003.2 |
| 20260504223008 | 23 | 20 | 8.0 | 24.1 | 0.00 | 0.00 | 0.00 | 33 | 1003.1 |
| 20260504222003 | 23 | 18 | 6.4 | 24.1 | 0.00 | 0.00 | 0.00 | 33 | 1002.9 |
| 20260504221508 | 24 | 10 | 6.4 | 24.1 | 0.00 | 0.00 | 0.00 | 33 | 1002.7 |
| 20260504221003 | 24 | 17 | 8.0 | 24.1 | 0.00 | 0.00 | 0.00 | 34 | 1002.6 |
| 20260504220504 | 24 | 20 | 6.4 | 24.1 | 0.00 | 0.00 | 0.00 | 32 | 1002.6 |
| 20260504220009 | 24 | 14 | 6.4 | 20.9 | 0.00 | 0.00 | 0.00 | 32 | 1002.4 |
| 20260504214508 | 25 | 11 | 6.4 | 22.5 | 0.00 | 0.00 | 0.00 | 32 | 1002.4 |
| 20260504214003 | 25 | 7 | 8.0 | 22.5 | 0.00 | 0.00 | 0.00 | 32 | 1002.4 |
| 20260504213503 | 25 | 1 | 8.0 | 20.9 | 0.00 | 0.00 | 0.00 | 33 | 1002.4 |
| 20260504213008 | 25 | 354 | 6.4 | 20.9 | 0.00 | 0.00 | 0.00 | 32 | 1002.4 |
| 20260504212505 | 25 | 11 | 6.4 | 19.3 | 0.00 | 0.00 | 0.00 | 33 | 1002.2 |
| 20260504212003 | 25 | 13 | 6.4 | 20.9 | 0.00 | 0.00 | 0.00 | 33 | 1002.1 |
| 20260504211508 | 25 | 17 | 6.4 | 20.9 | 0.00 | 0.00 | 0.00 | 33 | 1002.0 |
| 20260504211003 | 25 | 27 | 4.8 | 16.1 | 0.00 | 0.00 | 0.00 | 35 | 1002.0 |
| 20260504210505 | 25 | 19 | 6.4 | 17.7 | 0.00 | 0.00 | 0.00 | 36 | 1002.1 |
| 20260504210008 | 25 | 21 | 6.4 | 17.7 | 0.00 | 0.00 | 0.00 | 34 | 1002.0 |
| 20260504205504 | 26 | 21 | 4.8 | 14.5 | 0.00 | 0.00 | 0.00 | 35 | 1002.1 |
| 20260504205004 | 26 | 20 | 4.8 | 14.5 | 0.00 | 0.00 | 0.00 | 37 | 1002.0 |
| 20260504204508 | 26 | 356 | 8.0 | 20.9 | 0.00 | 0.00 | 0.00 | 40 | 1002.0 |
| 20260504204004 | 25 | 350 | 8.0 | 20.9 | 0.00 | 0.00 | 0.00 | 35 | 1002.1 |
| 20260504203504 | 26 | 5 | 6.4 | 17.7 | 0.00 | 0.00 | 0.00 | 37 | 1002.0 |
| 20260504203008 | 26 | 7 | 4.8 | 17.7 | 0.00 | 0.00 | 0.00 | 37 | 1002.0 |
| 20260504202504 | 26 | 350 | 4.8 | 16.1 | 0.00 | 0.00 | 0.00 | 37 | 1002.0 |
| 20260504201507 | 26 | 20 | 6.4 | 22.5 | 0.00 | 0.00 | 0.00 | 37 | 1002.0 |
| 20260504201004 | 26 | 7 | 6.4 | 22.5 | 0.00 | 0.00 | 0.00 | 36 | 1002.0 |
| 20260504200503 | 26 | 349 | 4.8 | 16.1 | 0.00 | 0.00 | 0.00 | 37 | 1001.9 |
| 20260504200008 | 26 | 344 | 6.4 | 16.1 | 0.00 | 0.00 | 0.00 | 36 | 1001.8 |
| 20260504195503 | 26 | 4 | 6.4 | 25.7 | 0.00 | 0.00 | 0.00 | 38 | 1001.9 |
| 20260504195004 | 26 | 359 | 6.4 | 25.7 | 0.00 | 0.00 | 0.00 | 38 | 1001.9 |
| 20260504194507 | 26 | 318 | 6.4 | 16.1 | 0.00 | 0.00 | 0.00 | 39 | 1001.7 |
| 20260504194004 | 26 | 324 | 6.4 | 16.1 | 0.00 | 0.00 | 0.00 | 37 | 1001.7 |
| 20260504193503 | 26 | 342 | 6.4 | 16.1 | 0.00 | 0.00 | 0.00 | 39 | 1001.7 |
| 20260504193008 | 26 | 335 | 6.4 | 16.1 | 0.00 | 0.00 | 0.00 | 36 | 1001.7 |
| 20260504191003 | 27 | 330 | 4.8 | 22.5 | 0.00 | 0.00 | 0.00 | 36 | 1001.6 |
| 20260504190504 | 27 | 345 | 4.8 | 22.5 | 0.00 | 0.00 | 0.00 | 36 | 1001.6 |
| 20260504190008 | 27 | 3 | 6.4 | 16.1 | 0.00 | 0.00 | 0.00 | 36 | 1001.6 |
| 20260504185003 | 27 | 345 | 4.8 | 19.3 | 0.00 | 0.00 | 0.00 | 35 | 1001.3 |
| 20260504184508 | 27 | 343 | 4.8 | 16.1 | 0.00 | 0.00 | 0.00 | 34 | 1001.3 |
| 20260504183503 | 27 | 322 | 6.4 | 22.5 | 0.00 | 0.00 | 0.00 | 34 | 1001.2 |
| 20260504183008 | 27 | 303 | 4.8 | 22.5 | 0.00 | 0.00 | 0.00 | 34 | 1001.3 |
| 20260504182504 | 27 | 308 | 6.4 | 22.5 | 0.00 | 0.00 | 0.00 | 33 | 1001.2 |
| 20260504181507 | 27 | 320 | 6.4 | 20.9 | 0.00 | 0.00 | 0.00 | 33 | 1001.2 |
| 20260504181004 | 27 | 319 | 4.8 | 17.7 | 0.00 | 0.00 | 0.00 | 33 | 1001.2 |
| 20260504180503 | 27 | 339 | 4.8 | 17.7 | 0.00 | 0.00 | 0.00 | 34 | 1001.2 |
| 20260504180008 | 27 | 346 | 4.8 | 19.3 | 0.00 | 0.00 | 0.00 | 34 | 1001.3 |
| 20260504175504 | 27 | 342 | 3.2 | 19.3 | 0.00 | 0.00 | 0.00 | 34 | 1001.3 |
| 20260504175004 | 27 | 290 | 3.2 | 16.1 | 0.00 | 0.00 | 0.00 | 36 | 1001.4 |
| 20260504174508 | 27 | 292 | 4.8 | 17.7 | 0.00 | 0.00 | 0.00 | 34 | 1001.4 |
| 20260504174003 | 26 | 293 | 4.8 | 17.7 | 0.00 | 0.00 | 0.00 | 35 | 1001.6 |
| 20260504173007 | 26 | 310 | 4.8 | 14.5 | 0.00 | 0.00 | 0.00 | 37 | 1001.6 |
| 20260504172503 | 26 | 314 | 4.8 | 16.1 | 0.00 | 0.00 | 0.00 | 37 | 1001.7 |
| 20260504172003 | 26 | 317 | 4.8 | 16.1 | 0.00 | 0.00 | 0.00 | 35 | 1001.6 |
| 20260504171507 | 26 | 322 | 8.0 | 20.9 | 0.00 | 0.00 | 0.00 | 36 | 1001.5 |
| 20260504171003 | 26 | 324 | 8.0 | 22.5 | 0.00 | 0.00 | 0.00 | 37 | 1001.6 |
| 20260504170504 | 26 | 317 | 4.8 | 22.5 | 0.00 | 0.00 | 0.00 | 36 | 1001.7 |
| 20260504151003 | 20 | 292 | 1.6 | 8.0 | 0.00 | 0.00 | 0.00 | 51 | 1001.8 |
| 20260504150504 | 20 | 276 | 1.6 | 8.0 | 0.00 | 0.00 | 0.00 | 52 | 1001.8 |
| 20260504141003 | 16 | 343 | 1.6 | 4.8 | 0.00 | 0.00 | 0.00 | 60 | 1002.3 |
| 20260504140504 | 16 | 316 | 3.2 | 9.7 | 0.00 | 0.00 | 0.00 | 60 | 1002.2 |
| 20260504130503 | 12 | 309 | 1.6 | 4.8 | 0.00 | 0.00 | 0.00 | 74 | 1002.4 |
| 20260504110503 | 8 | 184 | 0.0 | 1.6 | 0.00 | 0.00 | 0.00 | 84 | 1002.0 |
| 20260504100504 | 8 | 0 | 0.0 | 0.0 | 0.00 | 0.00 | 0.00 | 85 | 1002.1 |
| 20260504082003 | 9 | 0 | 0.0 | 0.0 | 0.00 | 0.00 | 0.00 | 82 | 1003.2 |
| 20260504081507 | 9 | 0 | 0.0 | 0.0 | 0.00 | 0.00 | 0.00 | 82 | 1003.3 |
| 20260504081003 | 9 | 0 | 0.0 | 0.0 | 0.00 | 0.00 | 0.00 | 81 | 1003.4 |
| 20260504080503 | 9 | 0 | 0.0 | 0.0 | 0.00 | 0.00 | 0.00 | 81 | 1003.5 |
| 20260504050503 | 12 | 0 | 0.0 | 0.0 | 0.00 | 0.00 | 0.00 | 73 | 1006.1 |
| 20260504050010 | 12 | 0 | 0.0 | 0.0 | 0.00 | 0.00 | 0.00 | 72 | 1006.1 |
| 20260504045504 | 12 | 0 | 0.0 | 0.0 | 0.00 | 0.00 | 0.00 | 71 | 1006.0 |
| 20260504045003 | 12 | 0 | 0.0 | 0.0 | 0.00 | 0.00 | 0.00 | 71 | 1006.2 |
| 20260504044508 | 12 | 0 | 0.0 | 0.0 | 0.00 | 0.00 | 0.00 | 71 | 1006.1 |
| 20260504044003 | 12 | 0 | 0.0 | 0.0 | 0.00 | 0.00 | 0.00 | 70 | 1006.1 |
| 20260504043504 | 13 | 0 | 0.0 | 0.0 | 0.00 | 0.00 | 0.00 | 69 | 1006.3 |
| 20260504043007 | 13 | 0 | 0.0 | 0.0 | 0.00 | 0.00 | 0.00 | 69 | 1006.3 |
| 20260504042503 | 13 | 0 | 0.0 | 0.0 | 0.00 | 0.00 | 0.00 | 68 | 1006.2 |
| 20260504041003 | 13 | 0 | 0.0 | 0.0 | 0.00 | 0.00 | 0.00 | 67 | 1006.4 |
| 20260504040504 | 13 | 0 | 0.0 | 0.0 | 0.00 | 0.00 | 0.00 | 67 | 1006.4 |
| 20260504040009 | 13 | 0 | 0.0 | 0.0 | 0.00 | 0.00 | 0.00 | 64 | 1006.5 |
| 20260504035503 | 14 | 0 | 0.0 | 0.0 | 0.00 | 0.00 | 0.00 | 66 | 1006.7 |
| 20260504035003 | 14 | 0 | 0.0 | 0.0 | 0.00 | 0.00 | 0.00 | 63 | 1006.7 |
| 20260504034508 | 14 | 0 | 0.0 | 0.0 | 0.00 | 0.00 | 0.00 | 64 | 1006.7 |
| 20260504033008 | 15 | 0 | 0.0 | 0.0 | 0.00 | 0.00 | 0.00 | 63 | 1006.9 |